This is the latest recevied weather packets stored in our database for station/object KE1THD. If no packets are shown the sender has not sent any weather packets the latest 10 day(s).
| Time | Temp. | Humidity | Pressure | Rain* | Wind** | Luminosity | Snow |
|---|---|---|---|---|---|---|---|
| 1776948243 | 17.22° C | 84% | 1011 hPa | 0 mm | - | 46 W/m² | - |
| 1776947942 | 17.22° C | 84% | 1011 hPa | 0 mm | - | 45 W/m² | - |
| 1776947637 | 16.67° C | 84% | 1011.2 hPa | 0 mm | - | 54 W/m² | - |
| 1776947333 | 16.67° C | 85% | 1011.1 hPa | 0 mm | - | 54 W/m² | - |
| 1776947030 | 16.67° C | 86% | 1011.3 hPa | 0 mm | - | 46 W/m² | - |
| 1776946727 | 16.67° C | 86% | 1011.1 hPa | 0 mm | - | 41 W/m² | - |
| 1776946424 | 16.11° C | 87% | 1011.3 hPa | 0 mm | - | 45 W/m² | - |
| 1776946121 | 16.11° C | 88% | 1011.3 hPa | 0 mm | - | 35 W/m² | - |
| 1776945818 | 16.11° C | 88% | 1011.1 hPa | 0 mm | - | 29 W/m² | - |
| 1776945513 | 15.56° C | 88% | 1011 hPa | 0 mm | - | 27 W/m² | - |
| 1776945210 | 15.56° C | 89% | 1011 hPa | 0 mm | - | 24 W/m² | - |
| 1776944909 | 15.56° C | 89% | 1011.1 hPa | 0 mm | - | 23 W/m² | - |
| 1776944607 | 15° C | 90% | 1011.3 hPa | 0 mm | - | 19 W/m² | - |
| 1776944303 | 15° C | 90% | 1011.1 hPa | 0 mm | - | 17 W/m² | - |
| 1776943998 | 15° C | 90% | 1011.2 hPa | 0 mm | - | 14 W/m² | - |
| 1776943695 | 15° C | 90% | 1011.3 hPa | 0 mm | - | 11 W/m² | - |
| 1776943391 | 15° C | 90% | 1011.4 hPa | 0 mm | - | 8 W/m² | - |
| 1776943087 | 15° C | 91% | 1011.4 hPa | 0 mm | - | 5 W/m² | - |
| 1776942783 | 15° C | 90% | 1011.4 hPa | 0 mm | - | 3 W/m² | - |
| 1776942478 | 15° C | 91% | 1011.4 hPa | 0 mm | - | 0 W/m² | - |
| 1776942175 | 15° C | 90% | 1011.4 hPa | 0 mm | - | 0 W/m² | - |
| 1776941874 | 15° C | 90% | 1011.3 hPa | 0 mm | - | 0 W/m² | - |
| 1776941569 | 15° C | 90% | 1011.3 hPa | 0 mm | - | 0 W/m² | - |
| 1776941264 | 15° C | 91% | 1011.4 hPa | 0 mm | - | 0 W/m² | - |
| 1776940960 | 15° C | 90% | 1011.4 hPa | 0 mm | - | 0 W/m² | - |
* Rain latest hour (hover to see other rain measurements)
** Current wind speed in m/s (hover to see current wind gust speed)